Voltar ao catálogo

STARLINK-1456

AtivoComunicaçõesVLEO
NORAD 45673·PAYLOAD·🇺🇸 United States

Lançado Jun 4, 2020 de Cape Canaveral Space Force Station

Loading…

Próximas Passagens (próximas 24 horas)

TLE

AtualizadoSource: CelesTrak SupGP

Época: Sep 14, 2026, 20:32 UTC

1 45673C 20035S   26257.85604167  .00100460  00000+0  50420-3 0  2575
2 45673  53.0379 196.2282 0005869  70.2308  78.6885 15.80952424    15

Acompanhe STARLINK-1456 em tempo real com AllMySat

Download on the App Store